Location: Zagreb
(45.8000°N, 16.0000°E)
Time: 20:55:59
(UTC+01:00)

deb Explorer IX - Pass Details

Date: 10 October 2020
Orbit: 537 x 1106 km, 38.8° (Epoch: 30 October)

Event Time Altitude Azimuth Distance (km) Brightness Sun altitude
Rises 15:59:39 0° 259° (W) 3,672 ? 21.4°
Reaches altitude 10° 16:02:35 10° 253° (WSW) 2,637 ? 21.0°
Maximum altitude 16:08:26 42° 185° (S) 1,173 ? 20.2°
Drops below altitude 10° 16:13:28 10° 115° (ESE) 2,257 ? 19.4°
Sets 16:15:48 0° 109° (ESE) 3,091 ? 19.1°
